Weather History for Ogallala, NE

Change the Weather History Date:

Saturday, August 24, 2013

  Actual Average Record
Temperature  
Mean Temperature 78 °F -  
Max Temperature 99 °F 87 °F 103 °F (1955)
Min Temperature 58 °F 57 °F 46 °F (1987)
Cooling Degree Days 14    
Growing Degree Days 28 (Base 50)    
Moisture  
Dew Point 55 °F    
Average Humidity 46    
Maximum Humidity 85    
Minimum Humidity 19    
Precipitation  
Precipitation 0.00 in - - ()
Sea Level Pressure  
Sea Level Pressure 29.96 in    
Wind  
Wind Speed 6 mph (South)    
Max Wind Speed 16 mph    
Max Gust Speed 22 mph    
Visibility 10 miles    
Events      
Averages and records for this station are not official NWS values.
T = Trace of Precipitation, MM = Missing Value Source: NWS Daily Summary

Daily Weather History Graph

Daily Weather History Graph

Search for Another Location

Airport:

Trip Planner

Search our weather history database for the weather conditions in past years. The results will help you decide how hot, cold, wet, or windy it might be!

Date:

Astronomy

Aug. 24, 2013 Rise Set
Actual Time 6:05 AM MDT 7:31 PM MDT
Civil Twilight 5:37 AM MDT 8:00 PM MDT
Nautical Twilight 5:02 AM MDT 8:35 PM MDT
Astronomical Twilight 4:25 AM MDT 9:11 PM MDT
Moon 9:24 PM MDT (8/24) 10:10 AM MDT (8/24)
Length of Visible Light 14h 23m
Length of Day
13h 26m
Waning Gibbous, 84% of the Moon is Illuminated
Aug 24
Waning Gibbous
Aug 28
Last Quarter
Sep 5
New
Sep 12
First Quarter
Sep 19
Full

Hourly Weather History & Observations

Time (MDT) Temp. Heat Index Dew Point Humidity Pressure Visibility Wind Dir Wind Speed Gust Speed Precip Events Conditions
12:15 AM 74.7 °F - 62.6 °F 66% 29.94 in 10.0 mi Calm Calm - N/A   Clear
12:35 AM 73.0 °F - 62.1 °F 68% 29.94 in 10.0 mi NNE 3.5 mph - N/A   Clear
12:55 AM 73.8 °F - 61.5 °F 65% 29.95 in 10.0 mi Calm Calm - N/A   Clear
1:15 AM 72.7 °F - 60.6 °F 66% 29.95 in 10.0 mi SSW 10.4 mph - N/A   Clear
1:35 AM 72.5 °F - 60.1 °F 65% 29.95 in 10.0 mi SW 8.1 mph - N/A   Clear
1:55 AM 69.4 °F - 59.9 °F 72% 29.96 in 10.0 mi Calm Calm - N/A   Clear
2:15 AM 70.2 °F - 58.8 °F 67% 29.96 in 10.0 mi Calm Calm - N/A   Clear
2:35 AM 68.9 °F - 58.3 °F 69% 29.96 in 10.0 mi SSE 4.6 mph - N/A   Clear
2:55 AM 68.4 °F - 58.5 °F 71% 29.95 in 10.0 mi SE 3.5 mph - N/A   Clear
3:15 AM 66.4 °F - 57.6 °F 73% 29.95 in 10.0 mi West 8.1 mph - N/A   Clear
3:35 AM 66.4 °F - 57.4 °F 73% 29.96 in 10.0 mi Calm Calm - N/A   Clear
3:55 AM 65.8 °F - 56.3 °F 71% 29.96 in 10.0 mi Calm Calm - N/A   Clear
4:15 AM 63.7 °F - 57.0 °F 79% 29.96 in 10.0 mi Calm Calm - N/A   Clear
4:35 AM 62.6 °F - 56.8 °F 81% 29.96 in 10.0 mi Calm Calm - N/A   Clear
4:55 AM 62.1 °F - 56.1 °F 81% 29.96 in 10.0 mi West 3.5 mph - N/A   Clear
5:15 AM 62.1 °F - 55.8 °F 80% 29.96 in 10.0 mi WSW 3.5 mph - N/A   Clear
5:35 AM 62.2 °F - 55.0 °F 77% 29.96 in 10.0 mi Calm Calm - N/A   Clear
5:55 AM 61.2 °F - 55.6 °F 82% 29.97 in 10.0 mi Calm Calm - N/A   Clear
6:15 AM 61.0 °F - 55.6 °F 82% 29.98 in 10.0 mi WSW 3.5 mph - N/A   Clear
6:35 AM 58.5 °F - 54.0 °F 85% 29.98 in 10.0 mi Calm Calm - N/A   Clear
6:55 AM 60.8 °F - 55.0 °F 81% 29.99 in 10.0 mi Calm Calm - N/A   Clear
7:15 AM 63.1 °F - 55.4 °F 76% 29.99 in 10.0 mi Calm Calm - N/A   Clear
7:35 AM 65.7 °F - 55.8 °F 70% 30.00 in 10.0 mi Calm Calm - N/A   Clear
7:55 AM 69.4 °F - 56.1 °F 62% 30.00 in 10.0 mi Calm Calm - N/A   Clear
8:15 AM 72.1 °F - 55.8 °F 56% 30.00 in 10.0 mi South 4.6 mph - N/A   Clear
8:35 AM 74.3 °F - 57.2 °F 55% 30.00 in 10.0 mi SSW 3.5 mph - N/A   Clear
8:55 AM 77.0 °F - 57.6 °F 51% 30.00 in 10.0 mi SW 5.8 mph - N/A   Clear
9:15 AM 78.8 °F - 58.3 °F 49% 30.00 in 10.0 mi Calm Calm - N/A   Clear
9:35 AM 80.6 °F 81.0 °F 58.8 °F 47% 30.00 in 10.0 mi Calm Calm - N/A   Clear
9:55 AM 84.4 °F 83.4 °F 55.9 °F 38% 30.00 in 10.0 mi South 10.4 mph - N/A   Clear
10:15 AM 85.3 °F 84.3 °F 56.7 °F 38% 30.00 in 10.0 mi SSE 8.1 mph - N/A   Clear
10:35 AM 86.4 °F 85.1 °F 56.1 °F 36% 30.00 in 10.0 mi South 9.2 mph - N/A   Clear
10:55 AM 87.3 °F 85.7 °F 55.4 °F 34% 29.99 in 10.0 mi South 12.7 mph - N/A   Clear
11:15 AM 88.9 °F 87.3 °F 56.1 °F 33% 29.99 in 10.0 mi South 11.5 mph 18.4 mph N/A   Clear
11:35 AM 90.0 °F 88.3 °F 56.1 °F 32% 29.99 in 10.0 mi South 11.5 mph 18.4 mph N/A   Clear
11:55 AM 90.7 °F 89.0 °F 56.3 °F 31% 29.99 in 10.0 mi South 12.7 mph 16.1 mph N/A   Clear
12:15 PM 91.6 °F 89.6 °F 55.2 °F 29% 29.98 in 10.0 mi South 15.0 mph 19.6 mph N/A   Clear
12:35 PM 93.0 °F 90.8 °F 54.7 °F 27% 29.97 in 10.0 mi South 15.0 mph 20.7 mph N/A   Clear
12:55 PM 94.3 °F 92.1 °F 54.9 °F 26% 29.97 in 10.0 mi South 12.7 mph - N/A   Clear
1:15 PM 94.3 °F 92.4 °F 55.4 °F 27% 29.96 in 10.0 mi SSW 11.5 mph 20.7 mph N/A   Clear
1:35 PM 96.1 °F 94.1 °F 54.7 °F 25% 29.95 in 10.0 mi SSW 10.4 mph - N/A   Clear
1:55 PM 97.3 °F 94.8 °F 53.1 °F 22% 29.95 in 10.0 mi South 12.7 mph 19.6 mph N/A   Clear
2:15 PM 97.3 °F 95.1 °F 53.6 °F 23% 29.94 in 10.0 mi South 11.5 mph 20.7 mph N/A   Clear
2:35 PM 97.9 °F - 52.9 °F 22% 29.94 in 10.0 mi South 16.1 mph 21.9 mph N/A   Clear
2:55 PM 97.5 °F 95.3 °F 54.1 °F 23% 29.93 in 10.0 mi SW 9.2 mph 18.4 mph N/A   Clear
3:15 PM 99.1 °F - 51.3 °F 20% 29.93 in 10.0 mi SSW 13.8 mph 20.7 mph N/A   Clear
3:35 PM 99.5 °F - 49.6 °F 19% 29.92 in 10.0 mi South 13.8 mph 20.7 mph N/A   Clear
3:55 PM 97.7 °F - 52.2 °F 21% 29.92 in 10.0 mi SSW 10.4 mph - N/A   Clear
4:15 PM 98.4 °F - 50.4 °F 20% 29.92 in 10.0 mi SSW 9.2 mph 19.6 mph N/A   Clear
4:35 PM 97.5 °F - 50.4 °F 20% 29.91 in 10.0 mi SSW 12.7 mph 18.4 mph N/A   Clear
4:55 PM 97.3 °F - 52.0 °F 22% 29.91 in 10.0 mi SSW 9.2 mph - N/A   Clear
5:15 PM 97.3 °F - 51.8 °F 21% 29.91 in 10.0 mi SSW 11.5 mph - N/A   Clear
5:35 PM 97.2 °F - 50.9 °F 21% 29.90 in 10.0 mi South 10.4 mph 16.1 mph N/A   Clear
5:55 PM 94.5 °F - 50.9 °F 23% 29.90 in 10.0 mi SSW 10.4 mph - N/A   Clear
6:15 PM 93.0 °F - 50.7 °F 24% 29.91 in 10.0 mi South 9.2 mph - N/A   Clear
6:35 PM 90.5 °F - 50.7 °F 26% 29.91 in 10.0 mi South 8.1 mph - N/A   Clear
6:55 PM 89.8 °F - 52.2 °F 28% 29.91 in 10.0 mi South 10.4 mph - N/A   Clear
7:15 PM 88.9 °F - 52.2 °F 28% 29.91 in 10.0 mi SSE 11.5 mph - N/A   Clear
7:35 PM 88.2 °F - 52.0 °F 29% 29.92 in 10.0 mi South 13.8 mph - N/A   Clear
7:55 PM 86.0 °F - 52.7 °F 32% 29.93 in 10.0 mi SSE 10.4 mph - N/A   Clear
8:15 PM 85.6 °F - 52.3 °F 32% 29.94 in 10.0 mi South 11.5 mph - N/A   Clear
8:35 PM 85.6 °F 83.8 °F 53.1 °F 33% 29.95 in 10.0 mi South 13.8 mph 19.6 mph N/A   Clear
8:55 PM 84.9 °F 83.3 °F 54.0 °F 34% 29.96 in 10.0 mi South 13.8 mph - N/A   Clear
9:15 PM 84.4 °F 83.2 °F 55.4 °F 37% 29.97 in 10.0 mi South 15.0 mph 20.7 mph N/A   Clear
9:35 PM 83.3 °F 82.5 °F 55.9 °F 39% 29.98 in 10.0 mi South 11.5 mph 18.4 mph N/A   Clear
9:55 PM 81.9 °F 81.6 °F 56.5 °F 42% 29.98 in 10.0 mi SSE 11.5 mph - N/A   Clear
10:15 PM 80.2 °F 80.5 °F 57.2 °F 45% 29.99 in 10.0 mi SSE 12.7 mph - N/A   Clear
10:55 PM 80.1 °F 80.4 °F 57.2 °F 45% 29.99 in 10.0 mi South 13.8 mph 18.4 mph N/A   Clear
11:15 PM 79.7 °F - 57.2 °F 46% 30.00 in 10.0 mi South 12.7 mph 18.4 mph N/A   Clear
11:35 PM 79.7 °F - 57.0 °F 46% 30.00 in 10.0 mi South 13.8 mph 19.6 mph N/A   Clear
11:55 PM 78.8 °F - 57.2 °F 47% 30.00 in 10.0 mi South 12.7 mph 17.3 mph N/A   Clear